Powrót do katalogu

INNOSAT3

AktywnyKrótkofalarstwoSSO
NORAD 64894·PAYLOAD·🇲🇾 Malaysia
Ta nazwa satelity nie została jeszcze potwierdzona przez oficjalne źródła.

Wystrzelony Jul 25, 2025 z Vostochny Cosmodrome

Loading…

Następne Przeloty (najbliższe 24 godziny)

TLE

ŚwieżeSource: Space-Track

Epoka: Sep 14, 2026, 13:42 UTC

1 64894U 25155U   26257.57108318  .00039388  00000-0  68902-3 0  9993
2 64894  97.4578 231.6860 0004012 165.8897 194.2467 15.50525325 94784

Śledź INNOSAT3 w czasie rzeczywistym z AllMySat

Download on the App Store